#timestamp,LO_Frequency,Hit,StdDev 
1509897615.8,286046991.8,N
1509897635.6,286046993.9,N
1509897655.5,286046996.0,N
1509897675.3,286046994.7,N
1509897695.1,286046994.2,N
1509897715.9,286046991.2,N
1509897735.7,286046995.6,N
1509897755.5,286046994.1,N
1509897775.4,286046993.5,N
1509897795.2,286046995.6,N
1509897815.0,286046996.8,N
1509897815.9,286046996.8,N
1509897835.8,286046994.3,N
1509897855.6,286046997.5,N
1509897875.4,286046996.0,N
1509897895.3,286046997.3,N
1509897915.1,286046999.4,N
1509897935.8,286046999.3,N
1509897955.7,286047002.1,N
1509897975.5,286047003.7,N
1509897995.3,286047003.1,N
1509898015.2,286047006.4,N
1509898035.9,286047008.8,N
1509898055.7,286047008.2,N
1509898075.6,286047007.8,N
1509898095.4,286047004.6,N
1509898115.2,286047010.8,N
1509898135.1,286047009.2,N
1509898136.0,286047009.2,N
1509898155.8,286047008.0,N
1509898175.6,286047008.4,N
1509898195.5,286047008.8,N
1509898215.3,286047008.5,N
1509898235.1,286047005.2,N
1509898255.9,286047003.2,N
1509898275.7,286047004.9,N
1509898295.5,286047005.7,N
1509898315.4,286047004.7,N
1509898335.2,286047005.5,N
1509898355.0,286047005.8,N
1509898355.9,286047005.8,N
1509898375.8,286047002.1,N
1509898395.6,286047004.0,N
1509898415.4,286047002.8,N
1509898435.3,286046999.7,N
1509898455.1,286047001.9,N
1509898456.0,286047001.9,N
1509898475.8,286047005.0,N
1509898495.7,286047005.5,N
1509898515.5,286047004.8,N
1509898535.3,286047012.9,Y
1509898555.2,286047003.1,P
1509898575.0,286047000.8,N
1509898575.9,286047000.8,N
1509898595.7,286047004.0,N
1509898615.6,286047000.2,N
1509898635.4,286046999.8,N
1509898655.2,286047002.2,N
1509898675.1,286047000.0,N
1509898676.0,286047000.0,N
1509898695.8,286047003.8,N
1509898715.6,286046999.7,N
1509898735.5,286047001.4,N
1509898755.3,286047000.5,N
1509898775.1,286046997.6,N
1509898795.9,286046999.1,N
1509898815.7,286046999.2,N
1509898835.5,286046996.0,N
1509898855.4,286046999.6,N
1509898875.2,286046998.8,N
1509898895.0,286046998.1,N
1509898895.9,286046998.1,N
1509898915.8,286047001.6,N
1509898935.6,286046999.2,N
1509898955.4,286047000.5,N
1509898975.3,286046998.2,N
1509898995.1,286047004.0,N
1509899015.8,286047003.8,N
1509899035.7,286047002.6,N
1509899055.5,286047000.6,N
1509899075.3,286047001.4,N
1509899095.2,286047003.3,N
1509899115.9,286047001.7,N
1509899135.7,286047005.6,N
1509899155.6,286047000.0,N
1509899175.4,286047004.0,N
1509899195.2,286047006.8,Y
1509899215.1,286047000.1,P
1509899216.0,286047000.1,N
1509899235.8,286046998.4,P
1509899255.7,286046996.7,Y
1509899275.5,286046996.9,P
1509899295.3,286046995.9,N
1509899315.2,286046994.7,P
1509899335.9,286046995.6,N
1509899355.7,286046994.9,N
1509899375.6,286046995.9,N
1509899395.4,286046992.9,Y
1509899415.2,286046996.8,P
1509899435.1,286046999.8,N
1509899436.0,286046999.8,N
1509899455.8,286047002.7,N
1509899475.6,286046998.2,N
1509899495.5,286046996.9,N
1509899515.3,286046996.9,N
1509899535.1,286046997.2,N
1509899555.9,286047005.7,N
1509899575.7,286046999.7,N
1509899595.5,286046999.7,N
1509899615.4,286047003.2,N
1509899635.2,286047001.5,N
1509899655.0,286047004.3,N
1509899655.9,286047004.3,N
1509899675.8,286047002.0,N
1509899695.6,286047003.5,N
1509899715.4,286047005.2,N
1509899735.3,286047008.3,N
1509899755.1,286047007.0,N
1509899756.0,286047007.0,N
1509899775.8,286047008.4,N
1509899795.7,286047007.2,N
1509899815.5,286047006.3,N
1509899835.3,286047004.1,N
1509899855.2,286047006.3,N
1509899875.9,286047006.0,N
1509899895.7,286047003.9,N
1509899915.6,286046998.7,N
1509899935.4,286046997.9,N
1509899955.2,286046998.9,N
1509899975.1,286046995.9,N
1509899976.0,286046995.9,N
1509899995.8,286046998.0,N
1509900015.6,286046998.5,N
1509900035.5,286047000.3,N
1509900055.3,286046999.3,N
1509900075.1,286047000.8,N
1509900095.9,286047000.5,N
1509900115.7,286047004.2,N
1509900135.5,286047002.5,N
1509900155.4,286047000.1,N
1509900175.2,286046998.9,N
1509900195.0,286046995.5,N
1509900195.9,286046995.5,N
1509900215.8,286046995.0,N
1509900235.6,286046999.5,N
1509900255.4,286047002.2,N
1509900275.3,286047001.8,N
1509900295.1,286047005.5,N
1509900296.0,286047005.5,N
1509900315.8,286047006.5,N
1509900335.7,286047004.9,N
1509900355.5,286047003.1,N
1509900375.3,286047003.3,N
1509900395.2,286047004.4,N
1509900415.9,286047004.2,N
1509900435.7,286047002.1,N
1509900455.6,286047002.4,N
1509900475.4,286047000.1,N
1509900495.2,286047001.3,N
1509900515.1,286047000.1,N
1509900516.0,286047000.1,N
1509900535.8,286047002.5,N
1509900555.6,286047002.3,N
1509900575.5,286047002.2,N
1509900595.3,286047000.9,N
1509900615.1,286047001.1,N
1509900635.9,286046998.1,N
1509900655.7,286046996.3,N
1509900675.5,286046993.9,N
1509900695.4,286046995.9,N
1509900715.2,286046993.9,N
1509900735.0,286046993.4,N
1509900735.9,286046993.4,N
1509900755.8,286046997.2,N
1509900775.6,286046997.1,N
1509900795.4,286047000.6,N
1509900815.3,286046995.9,N
1509900835.1,286046998.8,N
1509900836.0,286046998.8,N
1509900855.8,286046999.2,N
1509900875.7,286046997.6,N
1509900895.5,286046997.9,N
1509900915.3,286047000.6,N
1509900935.2,286046998.3,N
1509900955.9,286046998.9,N
1509900975.7,286046998.2,N
1509900995.6,286047002.2,N
1509901015.4,286047004.7,N
1509901035.2,286047009.6,Y
1509901055.1,286047018.6,P
1509901056.0,286047018.6,N
1509901075.8,286047016.2,N
1509901095.6,286047016.0,N
1509901115.5,286047018.4,N
1509901135.3,286047021.4,Y
1509901155.1,286047008.1,P
1509901175.9,286047007.5,N
1509901195.7,286047003.4,N
